Weather Service Report


847 
ASUS44 KBMX 270310
RWRAL 
             
ALABAMA REGIONAL WEATHER ROUNDUP
NATIONAL WEATHER SERVICE BIRMINGHAM AL
1000 PM CDT FRI AUG 26 2016

NOTE: "FAIR" INDICATES FEW OR NO CLOUDS BELOW 12,000 FEET
WITH NO SIGNIFICANT WEATHER AND/OR OBSTRUCTIONS TO VISIBILITY.

THE REMARK "TC" DENOTES TEMPERATURE IN DEGREES CELSIUS.

ALZ001>011-014-016>018-020-270400-
NORTH ALABAMA
  
CITY           SKY/WX    TMP DP  RH WIND       PRES   REMARKS
MUSCLE SHOALS  CLOUDY    75  72  90 CALM      30.09R                  
HUNTSVILLE     CLOUDY    74  71  91 E5        30.08R                  
DECATUR        CLOUDY    73  72  96 CALM      30.08S                  
HALEYVILLE     FAIR      72  71  97 NE3       30.10S                  
GADSDEN        CLEAR     76  73  91 NE3       30.08S                  
$$
 
ALZ012-013-022-023-030>036-040>044-270400-
WEST CENTRAL ALABAMA
  
CITY           SKY/WX    TMP DP  RH WIND       PRES   REMARKS
TUSCALOOSA     CLEAR     79  76  90 NE5       30.04S                  
$$
 
ALZ015-024>027-033>036-040>044-270400-
CENTRAL ALABAMA
  
CITY           SKY/WX    TMP DP  RH WIND       PRES   REMARKS
BIRMINGHAM     CLEAR     79  73  82 CALM      30.08F                  
MONTGOMERY     CLEAR     80  69  69 CALM      30.03R                  
SHELBY CO ARPT CLEAR     77  72  84 CALM      30.05S                  
MAXWELL AFB    CLEAR     79  75  87 N2        30.02S                  
GREENVILLE     FAIR      78  73  84 CALM      30.04S                  
$$
 
ALZ019-021-028-029-037-038-045>048-270400-
EAST CENTRAL ALABAMA
  
CITY           SKY/WX    TMP DP  RH WIND       PRES   REMARKS
ANNISTON       CLEAR     79  71  76 CALM      30.07S                  
ALEXANDER CITY CLEAR     80  80 100 CALM      30.06F                  
AUBURN         NOT AVBL                                               
$$
 
ALZ051>064-270400-
SOUTHWEST ALABAMA
  
CITY           SKY/WX    TMP DP  RH WIND       PRES   REMARKS
MOBILE         CLEAR     76  74  93 CALM      30.01S                  
BROOKLEY FIELD CLEAR     82  75  79 SE8       30.01S                  
EVERGREEN      CLEAR     75  73  93 CALM      30.03S                  
$$

ALZ049-050-065>069-270400-
SOUTHEAST ALABAMA
  
CITY           SKY/WX    TMP DP  RH WIND       PRES   REMARKS
DOTHAN         PTCLDY    76  74  93 CALM      30.07S                  
OZARK          PTCLDY    79  71  76 N3        30.03S                  
TROY           CLEAR     75  75 100 CALM      30.05S                  
EUFAULA        FAIR      73  69  87 CALM      30.04R                  
$$
  

Return to Home page


Western Regional Climate Center, wrcc@dri.edu